Location: Hylvaty SDH
(49.9612°N, 16.4057°E)
Time: 04:18:58
(UTC+01:00)

SR - Visible Passes

Search period start: 25 January 2020 00:00
Search period end: 04 February 2020 00:00
Orbit: 574 x 882 km, 66.7° (Epoch: 24 January)

Date Brightness Start Highest point End Pass type
(mag) Time Alt. Az. Time Alt. Az. Time Alt. Az.
25 Jan ? 03:47:09 17° NNE 03:47:09 17° NNE 03:50:35 10° NE visible
25 Jan ? 05:26:34 15° NNW 05:30:48 37° NE 05:35:45 10° ESE visible
26 Jan ? 02:58:54 12° NNE 02:58:54 12° NNE 02:59:46 10° NE visible
26 Jan ? 04:38:19 20° N 04:40:40 26° NNE 04:45:12 10° E visible
26 Jan ? 06:17:53 10° NW 06:23:36 87° NE 06:28:49 10° SE visible
27 Jan ? 03:50:07 20° NNE 03:50:22 20° NNE 03:54:23 10° ENE visible
27 Jan ? 05:29:32 17° NNW 05:33:47 54° NE 05:38:56 10° ESE visible
28 Jan ? 03:01:59 14° NE 03:01:59 14° NE 03:03:28 10° NE visible
28 Jan ? 04:41:24 25° N 04:43:48 35° NE 04:48:41 10° ESE visible
28 Jan ? 06:20:49 10° NW 06:26:15 57° WSW 06:31:16 10° SSE visible
29 Jan ? 03:53:19 25° NNE 03:53:38 25° NNE 03:58:06 10° E visible
29 Jan ? 05:32:45 21° NW 05:36:38 84° NE 05:41:49 10° SE visible
30 Jan ? 03:05:19 16° NE 03:05:19 16° NE 03:07:17 10° ENE visible
30 Jan ? 04:44:45 34° N 04:46:48 52° NE 04:51:54 10° ESE visible
30 Jan ? 06:24:11 12° NW 06:28:43 34° WSW 06:33:16 10° S visible
31 Jan ? 03:56:51 34° NE 03:56:51 34° NE 04:01:37 10° ESE visible
31 Jan ? 05:36:17 26° NW 05:39:17 60° WSW 05:44:19 10° SSE visible
01 Feb ? 03:09:03 18° ENE 03:09:03 18° ENE 03:11:00 10° E visible
01 Feb ? 04:48:30 56° NNW 04:49:39 80° NE 04:54:48 10° SE visible
01 Feb ? 06:27:57 13° WNW 06:31:01 20° WSW 06:34:38 10° SSW visible
02 Feb ? 04:00:51 43° E 04:00:51 43° E 04:04:52 10° ESE visible
02 Feb ? 05:40:19 30° W 05:41:46 35° WSW 05:46:21 10° S visible
02 Feb ? 20:09:14 10° SSW 20:09:54 14° SSW 20:09:54 14° SSW visible
03 Feb ? 03:13:20 16° E 03:13:20 16° E 03:14:32 10° E visible
03 Feb ? 04:52:48 60° SSW 04:52:48 60° SSW 04:57:20 10° SSE visible
03 Feb ? 06:32:16 10° W 06:33:11 10° W 06:34:10 10° WSW visible
03 Feb ? 19:20:10 10° S 19:22:57 26° SSE 19:22:57 26° SSE visible
03 Feb ? 21:01:49 10° WSW 21:02:27 13° WSW 21:02:27 13° WSW visible
